Terug naar catalogus

STARLINK-37326

ActiefCommunicatieVLEO
NORAD 68542·PAYLOAD·🇺🇸 United States

Gelanceerd Apr 2, 2026 vanaf Cape Canaveral Space Force Station

Loading…

Volgende Passages (komende 24 uur)

TLE

VersSource: CelesTrak SupGP

Epoch: Sep 14, 2026, 23:25 UTC

1 68542C 26070A   26257.97618056 -.00091455  00000+0 -27003-2 0  2570
2 68542  53.1591 199.8267 0001296  92.1974 329.0505 15.34456222    12

Volg STARLINK-37326 in realtime met AllMySat

Download on the App Store